Terug naar catalogus

STARLINK-36139

ActiefCommunicatieVLEO
NORAD 66966·PAYLOAD·🇺🇸 United States

Gelanceerd Dec 8, 2025 vanaf Cape Canaveral Space Force Station

Loading…

Volgende Passages (komende 24 uur)

TLE

VersSource: CelesTrak SupGP

Epoch: Sep 15, 2026, 02:38 UTC

1 66966C 25288H   26258.11020833 -.00021057  00000+0 -76247-3 0  2582
2 66966  43.0017  33.4943 0001378 268.5075 293.8536 15.27597912    13

Volg STARLINK-36139 in realtime met AllMySat

Download on the App Store